Lid_Strength_Index
0 0 3 4 10 11 16 13 9 11 10 7 6 7 8 8 9 12 2 1 0 0 0 -0 -1 -1 -1 -1 -1 -1 -1 -1 -1 -1 -1 -1 -1 -1 -1 -1 -1 -1 -1 -1 -1 -1 -1 -1 -1
0 1 5 8 12 16 15 11 12 10 7 6 6 6 8 9 5 4 3 1 -0 -0 0 0 -1 -1 -1 -1 -1 -1 -1 -1 -1 -1 -1 -1 -1 -1 -1 -1 -1 -1 -1 -1 -1 -1 -1 -1 -1
3 4 8 10 13 15 15 11 10 8 6 6 7 5 7 8 4 3 1 0 -0 0 0 -0 -1 -1 -1 -1 -1 -1 -1 -1 -1 -1 -1 -1 -1 -1 -1 -1 -1 -1 -1 -1 -1 -1 -1 -1 -1
4 6 8 11 15 12 11 10 8 8 6 6 6 8 5 3 3 2 0 0 0 0 -0 -1 -1 -1 -1 -1 -1 -1 -1 -1 -1 -1 -1 -1 -1 -1 -1 -1 -1 -1 -1 -1 -1 -1 -1 -1 -1
8 9 11 14 14 11 9 8 8 8 7 7 6 9 7 3 1 1 1 0 1 0 0 -0 -1 -1 -1 -1 -1 -1 -1 -1 -1 -1 -1 -1 -1 -1 -1 -1 -1 -1 -1 -1 -1 -1 -1 -1 -1
10 11 13 15 13 10 9 7 7 8 7 6 7 8 7 2 2 1 1 1 -0 0 0 -0 -1 -1 -1 -1 -1 -1 -1 -1 -1 -1 -1 -1 -1 -1 -1 -1 -1 -1 -1 -1 -1 -1 -1 -1 -1
11 13 14 14 13 12 9 6 8 7 8 8 5 9 6 4 2 1 1 0 0 -0 0 0 -0 -1 -1 -1 -1 -1 -1 -1 -1 -1 -1 -0 -1 -0 -1 -1 -1 -1 -1 -2 -1 -1 -1 -1 -2
11 13 15 12 13 13 8 7 7 7 8 4 4 9 9 4 2 1 1 1 1 0 0 1 0 -0 -0 -0 -1 -1 -1 -1 -1 -1 0 1 1 1 1 -0 0 -0 0 -0 -0 -0 -0 0 0
12 15 15 14 12 11 8 9 6 5 6 6 4 5 4 2 2 2 2 2 2 1 1 1 0 1 0 -0 -0 0 0 1 1 3 2 3 3 2 2 0 1 1 1 1 1 1 1 2 2
14 15 14 12 8 9 8 8 7 7 7 7 6 4 3 3 3 4 4 4 3 3 2 2 1 1 1 1 3 3 3 4 4 4 4 3 3 2 2 2 1 1 2 2 2 2 2 3 4
15 15 12 11 7 7 8 8 6 8 9 7 7 6 4 4 4 4 3 3 3 3 3 3 2 2 3 3 3 3 4 5 4 4 3 3 3 3 2 2 2 3 2 3 3 3 4 4 4
13 13 12 12 10 7 9 7 8 7 7 5 5 4 4 4 4 4 4 3 4 4 4 4 4 5 5 4 3 4 5 5 4 3 3 4 4 3 3 3 2 2 2 1 1 2 2 3 3
15 14 13 11 7 8 6 8 8 8 6 4 4 4 5 4 4 3 3 3 4 5 4 4 5 5 5 5 5 5 5 5 4 4 4 4 4 4 3 3 3 2 2 2 2 2 2 2 1
12 13 13 12 8 8 8 9 7 7 5 5 5 5 5 4 4 4 4 5 5 5 5 4 5 5 6 6 6 5 5 5 5 5 4 4 4 4 4 4 3 3 2 2 2 3 2 2 2
11 13 9 9 8 9 7 10 10 7 6 6 6 6 5 4 4 4 5 6 6 5 6 7 7 6 6 6 6 5 5 5 5 5 4 4 4 4 4 4 3 3 2 2 2 2 2 2 2
12 13 14 11 9 8 8 13 9 6 7 7 6 6 5 5 5 5 5 6 6 7 7 7 6 7 7 6 5 6 6 6 6 6 5 3 3 3 4 4 3 3 2 2 2 3 3 3 3
13 14 14 13 9 9 10 13 8 7 7 8 7 6 6 5 5 5 5 6 7 7 7 7 6 7 6 6 6 6 7 7 6 6 5 3 3 3 3 3 3 2 2 3 3 3 2 3 3
15 15 14 13 10 10 11 12 9 8 7 8 7 7 6 6 7 5 5 5 5 6 7 7 7 7 7 7 7 7 8 7 6 5 4 4 3 3 3 3 2 2 2 3 3 3 1 2 2
12 13 13 12 11 11 11 11 10 8 8 8 8 7 7 6 5 4 6 6 6 6 6 7 8 7 7 7 8 8 8 7 6 4 4 4 4 3 3 2 2 2 2 2 4 3 2 3 3
12 13 13 12 11 10 11 12 10 9 8 8 8 7 7 6 7 6 6 6 6 6 6 7 8 8 8 7 7 8 8 7 6 6 5 4 3 3 2 2 3 2 3 4 5 5 3 4 4
13 14 13 12 10 10 12 14 13 10 8 7 7 6 6 7 7 6 6 6 7 7 7 8 7 8 8 8 8 8 7 7 7 6 6 5 4 3 3 3 4 3 4 5 5 5 5 6 4
14 11 11 12 12 15 11 16 13 12 11 9 8 7 7 7 7 7 7 7 7 6 7 8 7 8 9 8 8 8 8 8 8 7 6 5 4 3 3 4 4 4 4 5 4 5 5 5 6
11 10 11 11 14 13 13 15 15 11 12 11 9 8 7 8 7 8 7 7 6 7 8 8 7 8 9 8 8 8 8 7 7 7 6 6 5 4 4 4 4 5 5 4 4 5 5 6 6
9 11 13 13 13 17 13 14 15 14 12 10 9 7 8 9 8 8 6 6 7 8 8 8 8 8 8 8 8 7 7 7 7 7 6 6 6 5 4 5 5 5 5 5 5 5 5 6 6
12 14 17 18 17 16 13 14 12 11 10 9 9 8 8 9 9 8 8 7 8 9 8 8 8 8 8 7 7 7 7 7 7 6 6 6 6 5 5 5 5 5 5 4 5 5 5 5 6
13 14 16 19 19 17 13 16 12 10 8 8 7 7 8 9 9 8 8 7 8 8 7 6 8 7 7 7 7 7 7 6 6 6 6 6 6 6 5 4 5 5 5 4 4 5 5 6 6
13 15 13 16 16 17 15 13 10 10 9 9 8 8 9 9 9 8 8 7 8 8 7 7 7 7 7 7 7 7 7 6 6 6 6 6 6 5 5 5 6 5 5 5 5 6 5 5 5
11 11 15 16 18 19 16 16 14 13 11 10 9 9 9 9 9 8 8 7 7 7 6 6 6 7 7 7 7 7 6 6 6 6 6 6 6 5 5 6 6 6 6 5 5 6 5 5 5
12 13 14 14 15 18 19 16 10 10 10 10 9 8 9 9 9 8 7 7 7 7 7 7 7 7 8 7 7 6 6 5 5 5 5 5 5 5 5 6 6 7 7 6 5 5 5 5 5
12 13 14 16 16 16 17 16 10 9 8 8 8 7 8 8 8 7 7 8 8 7 7 7 7 7 7 7 7 6 6 5 5 5 5 5 5 5 5 5 6 6 7 7 6 6 5 5 6